Weather History for Fort Indiantown Gap, PA

Change the Weather History Date:

Friday, August 30, 2013

  Actual Average Record
Temperature  
Mean Temperature 75 °F -  
Max Temperature 85 °F 78 °F 91 °F (2010)
Min Temperature 66 °F 63 °F 50 °F (2011)
Cooling Degree Days 10    
Growing Degree Days 25 (Base 50)    
Moisture  
Dew Point 70 °F    
Average Humidity 89    
Maximum Humidity 100    
Minimum Humidity 61    
Precipitation  
Precipitation 0.00 in - - ()
Sea Level Pressure  
Sea Level Pressure 29.98 in    
Wind  
Wind Speed 3 mph (SSW)    
Max Wind Speed 9 mph    
Max Gust Speed -    
Visibility 6 miles    
Events Rain    
Averages and records for this station are not official NWS values.
T = Trace of Precipitation, MM = Missing Value Source: NWS Daily Summary

Daily Weather History Graph

Daily Weather History Graph

Search for Another Location

Airport:

Trip Planner

Search our weather history database for the weather conditions in past years. The results will help you decide how hot, cold, wet, or windy it might be!

Date:

Astronomy

Aug. 30, 2013 Rise Set
Actual Time 6:31 AM EDT 7:41 PM EDT
Civil Twilight 6:03 AM EDT 8:09 PM EDT
Nautical Twilight 5:30 AM EDT 8:42 PM EDT
Astronomical Twilight 4:55 AM EDT 9:17 PM EDT
Moon 1:08 AM EDT (8/30) 3:55 PM EDT (8/30)
Length of Visible Light 14h 05m
Length of Day
13h 09m
Waning Crescent, 29% of the Moon is Illuminated
Aug 30
Waning Crescent
Sep 5
New
Sep 12
First Quarter
Sep 19
Full
Sep 26
Last Quarter

Hourly Weather History & Observations

Time (EDT) Temp. Heat Index Dew Point Humidity Pressure Visibility Wind Dir Wind Speed Gust Speed Precip Events Conditions
12:58 AM 67.8 °F - 67.8 °F 100% 30.03 in 3.0 mi NE 1.2 mph - N/A   Mostly Cloudy
1:00 AM 68.0 °F - 68.0 °F 100% 30.03 in 2.5 mi ENE 2.3 mph - N/A   Mostly Cloudy
1:08 AM 66.2 °F - 66.2 °F 100% 30.03 in 3.0 mi Calm Calm - N/A   Mostly Cloudy
1:58 AM 68.0 °F - 68.0 °F 100% 30.03 in 5.0 mi ENE 2.3 mph - N/A   Overcast
2:58 AM 68.9 °F - 68.5 °F 99% 30.02 in 5.0 mi NNE 1.2 mph - N/A   Partly Cloudy
2:59 AM 68.0 °F - 68.0 °F 100% 30.02 in 5.0 mi NNE 2.3 mph - N/A   Partly Cloudy
3:23 AM 68.0 °F - 68.0 °F 100% 30.03 in 4.0 mi NNE 2.3 mph - N/A   Mostly Cloudy
3:33 AM 68.0 °F - 68.0 °F 100% 30.03 in 3.0 mi Calm Calm - N/A   Mostly Cloudy
3:41 AM 68.0 °F - 68.0 °F 100% 30.02 in 4.0 mi East 2.3 mph - N/A   Overcast
3:58 AM 68.9 °F - 68.5 °F 99% 30.02 in 4.0 mi North 2.3 mph - N/A   Overcast
4:58 AM 69.6 °F - 69.4 °F 99% 30.02 in 4.0 mi SSW 1.2 mph - N/A   Overcast
5:58 AM 70.0 °F - 69.6 °F 99% 30.02 in 5.0 mi SW 4.6 mph - N/A   Overcast
6:06 AM 69.8 °F - 69.8 °F 100% 30.02 in 5.0 mi WSW 4.6 mph - N/A   Overcast
6:58 AM 70.2 °F - 69.8 °F 99% 30.02 in 3.0 mi SW 4.6 mph - N/A   Overcast
7:06 AM 69.8 °F - 69.8 °F 100% 30.03 in 3.0 mi WSW 4.6 mph - N/A   Overcast
7:20 AM 69.8 °F - 69.8 °F 100% 30.03 in 4.0 mi SW 4.6 mph - N/A   Overcast
7:58 AM 70.7 °F - 70.3 °F 99% 30.03 in 4.0 mi WSW 5.8 mph - N/A   Overcast
8:41 AM 71.6 °F - 69.8 °F 94% 30.03 in 5.0 mi WSW 5.8 mph - N/A   Overcast
8:58 AM 71.4 °F - 70.7 °F 98% 30.03 in 5.0 mi SW 4.6 mph - N/A   Overcast
9:38 AM 71.6 °F - 69.8 °F 94% 30.03 in 6.0 mi West 5.8 mph - N/A   Overcast
9:46 AM 73.4 °F - 69.8 °F 88% 30.03 in 7.0 mi SW 4.6 mph - N/A   Overcast
9:50 AM 73.4 °F - 69.8 °F 88% 30.03 in 7.0 mi Variable 5.8 mph - N/A   Overcast
9:52 AM 73.4 °F - 69.8 °F 88% 30.03 in 7.0 mi WSW 5.8 mph - N/A   Overcast
9:54 AM 73.4 °F - 69.8 °F 88% 30.03 in 7.0 mi WSW 4.6 mph - N/A   Overcast
9:58 AM 73.2 °F - 70.2 °F 90% 30.03 in 7.0 mi SW 3.5 mph - N/A   Overcast
10:00 AM 73.4 °F - 69.8 °F 88% 30.03 in 7.0 mi Variable 3.5 mph - N/A   Overcast
10:02 AM 73.4 °F - 69.8 °F 88% 30.03 in 7.0 mi Variable 4.6 mph - N/A   Overcast
10:06 AM 73.4 °F - 69.8 °F 88% 30.03 in 8.0 mi WSW 5.8 mph - N/A   Overcast
10:18 AM 73.4 °F - 69.8 °F 88% 30.02 in 8.0 mi SW 8.1 mph - N/A   Overcast
10:58 AM 75.2 °F - 70.2 °F 84% 30.02 in 9.0 mi SSW 5.8 mph - N/A   Overcast
11:52 AM 77.0 °F - 69.8 °F 78% 30.00 in 10.0 mi WSW 6.9 mph - N/A   Scattered Clouds
11:58 AM 77.2 °F - 68.9 °F 76% 30.00 in 10.0 mi SW 6.9 mph - N/A   Partly Cloudy
12:58 PM 80.8 °F 84.2 °F 70.0 °F 70% 29.97 in 10.0 mi South 9.2 mph - N/A   Partly Cloudy
1:58 PM 82.4 °F 86.1 °F 69.6 °F 65% 29.96 in 10.0 mi SSW 8.1 mph - N/A   Partly Cloudy
2:58 PM 84.6 °F 88.8 °F 70.0 °F 61% 29.93 in 10.0 mi WSW 9.2 mph - N/A   Partly Cloudy
3:58 PM 84.2 °F 88.7 °F 70.2 °F 63% 29.92 in 10.0 mi South 9.2 mph - N/A   Scattered Clouds
4:29 PM 82.4 °F 86.3 °F 69.8 °F 66% 29.91 in 10.0 mi South 6.9 mph - N/A Rain Light Rain
4:38 PM 82.4 °F 86.3 °F 69.8 °F 66% 29.91 in 10.0 mi SE 2.3 mph - N/A   Mostly Cloudy
4:49 PM 82.4 °F 87.2 °F 71.6 °F 70% 29.91 in 10.0 mi East 4.6 mph - N/A Rain Light Rain
4:58 PM 81.0 °F 85.1 °F 71.6 °F 73% 29.91 in 10.0 mi East 5.8 mph - 0.00 in Rain Light Rain
4:59 PM 80.6 °F 84.6 °F 71.6 °F 74% 29.90 in 10.0 mi East 5.8 mph - N/A   Overcast
5:58 PM 79.0 °F - 71.8 °F 78% 29.89 in 10.0 mi ENE 4.6 mph - 0.00 in   Overcast
6:58 PM 76.5 °F - 72.1 °F 86% 29.88 in 10.0 mi NE 4.6 mph - N/A   Clear
7:58 PM 73.2 °F - 72.9 °F 99% 29.87 in 5.0 mi North 2.3 mph - N/A   Clear
8:58 PM 70.7 °F - 70.3 °F 99% 29.89 in 5.0 mi NE 2.3 mph - N/A   Clear
9:58 PM 69.6 °F - 69.6 °F 100% 29.90 in 4.0 mi NE 1.2 mph - N/A   Clear
10:58 PM 69.3 °F - 69.3 °F 100% 29.90 in 4.0 mi Calm Calm - N/A   Mostly Cloudy
11:56 PM 68.0 °F - 68.0 °F 100% 29.90 in 2.5 mi Calm Calm - N/A   Scattered Clouds
11:58 PM 68.2 °F - 68.2 °F 100% 29.90 in 2.5 mi Calm Calm - N/A   Scattered Clouds